,,Stat5,,Stat1,,Stat2,,Stat3,,Stat4,,Wind1,,Wind1,
time,status,PA1M_AVG,status,PR1M_SUM,status,RH1M_AVG,status,SR1M_AVG,status,TA1M_AVG,status,W1dAve1m,status,W1sAve1m,
2000-12-18, 00:00:00,VALID,917.013,VALID,0,VALID,98.1017,VALID,-0.101885,VALID,19.9269,VALID,173,VALID,0,
2000-12-18, 00:01:00,VALID,917.007,VALID,0,VALID,98.1564,VALID,-0.101885,VALID,19.9371,VALID,171,VALID,0,
2000-12-18, 00:02:00,VALID,916.99,VALID,0,VALID,98.1908,VALID,-0.0849042,VALID,19.9498,VALID,162,VALID,0,
2000-12-18, 00:03:00,VALID,916.99,VALID,0,VALID,98.2149,VALID,-0.101885,VALID,19.9629,VALID,161,VALID,0,
2000-12-18, 00:04:00,VALID,916.961,VALID,0,VALID,98.234,VALID,-0.0849042,VALID,19.9719,VALID,160,VALID,0,
2000-12-18, 00:05:00,VALID,916.935,VALID,0,VALID,98.2327,VALID,0,VALID,19.9706,VALID,160,VALID,0,
2000-12-18, 00:06:00,VALID,916.902,VALID,0,VALID,98.2594,VALID,0.0509425,VALID,19.9873,VALID,160,VALID,0,
2000-12-18, 00:07:00,VALID,916.865,VALID,0,VALID,98.2874,VALID,0,VALID,20.0005,VALID,160,VALID,0,
2000-12-18, 00:08:00,VALID,916.829,VALID,0,VALID,98.3167,VALID,0.0169808,VALID,20.0099,VALID,160,VALID,0,
2000-12-18, 00:09:00,VALID,916.819,VALID,0,VALID,98.3459,VALID,0.0169808,VALID,20.026,VALID,160,VALID,0,
2000-12-18, 00:10:00,VALID,916.821,VALID,0,VALID,98.3688,VALID,0,VALID,20.036,VALID,159,VALID,0,
2000-12-18, 00:11:00,VALID,916.832,VALID,0,VALID,98.365,VALID,0.0339617,VALID,20.039,VALID,155,VALID,0,
2000-12-18, 00:12:00,VALID,916.851,VALID,0,VALID,98.3523,VALID,0.0169808,VALID,20.0454,VALID,131,VALID,0.15076,
2000-12-18, 00:13:00,VALID,916.876,VALID,0,VALID,98.3599,VALID,0,VALID,20.0315,VALID,101,VALID,0.485894,
2000-12-18, 00:14:00,VALID,916.893,VALID,0,VALID,98.3751,VALID,0.0169808,VALID,20.0549,VALID,110,VALID,0.468967,
2000-12-18, 00:15:00,VALID,916.898,VALID,0,VALID,98.3955,VALID,0,VALID,20.0616,VALID,111,VALID,0.115282,
2000-12-18, 00:16:00,VALID,916.887,VALID,0,VALID,98.3332,VALID,0,VALID,20.0315,VALID,109,VALID,0.0910051,
2000-12-18, 00:17:00,VALID,916.866,VALID,0,VALID,98.3167,VALID,0.0169808,VALID,20.0258,VALID,105,VALID,0.439145,
2000-12-18, 00:18:00,VALID,916.822,VALID,0,VALID,98.3497,VALID,0.0169808,VALID,20.0392,VALID,101,VALID,0.960732,
2000-12-18, 00:19:00,VALID,916.792,VALID,0,VALID,98.3929,VALID,0,VALID,20.0288,VALID,107,VALID,0.704268,
2000-12-18, 00:20:00,VALID,916.754,VALID,0,VALID,98.3942,VALID,0.0169808,VALID,20.0514,VALID,114,VALID,0.686266,
2000-12-18, 00:21:00,VALID,916.712,VALID,0,VALID,98.412,VALID,0,VALID,20.0516,VALID,105,VALID,0.79153,
2000-12-18, 00:22:00,VALID,916.678,VALID,0,VALID,98.4044,VALID,0.0339617,VALID,20.0479,VALID,111,VALID,0.363715,
2000-12-18, 00:23:00,VALID,916.668,VALID,0,VALID,98.3764,VALID,0,VALID,20.0487,VALID,106,VALID,0.418919,
2000-12-18, 00:24:00,VALID,916.627,VALID,0,VALID,98.3828,VALID,0,VALID,20.0454,VALID,104,VALID,0.623884,
2000-12-18, 00:25:00,VALID,916.598,VALID,0,VALID,98.3713,VALID,0.0339617,VALID,20.0519,VALID,100,VALID,0.67352,
2000-12-18, 00:26:00,VALID,916.582,VALID,0,VALID,98.4006,VALID,0,VALID,20.0479,VALID,103,VALID,0.0903716,
2000-12-18, 00:27:00,VALID,916.558,VALID,0,VALID,98.4108,VALID,0.0169808,VALID,20.0482,VALID,107,VALID,0.110609,
2000-12-18, 00:28:00,VALID,916.542,VALID,0,VALID,98.4209,VALID,0.0339617,VALID,20.0479,VALID,100,VALID,0.326436,
2000-12-18, 00:29:00,VALID,916.513,VALID,0,VALID,98.4387,VALID,0,VALID,20.0579,VALID,117,VALID,0.0451172,
2000-12-18, 00:30:00,VALID,916.496,VALID,0,VALID,98.4018,VALID,0.0169808,VALID,20.0355,VALID,138,VALID,0.0328947,
2000-12-18, 00:31:00,VALID,916.489,VALID,0,VALID,98.44,VALID,0,VALID,20.0447,VALID,116,VALID,0.285807,
2000-12-18, 00:32:00,VALID,916.494,VALID,0,VALID,98.4642,VALID,0.0339617,VALID,20.0549,VALID,101,VALID,0.755068,
2000-12-18, 00:33:00,VALID,916.487,VALID,0,VALID,98.4654,VALID,0,VALID,20.0447,VALID,106,VALID,0.734586,
2000-12-18, 00:34:00,VALID,916.485,VALID,0,VALID,98.4858,VALID,0.0169808,VALID,20.0484,VALID,108,VALID,0.86466,
2000-12-18, 00:35:00,VALID,916.492,VALID,0,VALID,98.5137,VALID,-0.0169808,VALID,20.0581,VALID,93,VALID,0.701953,
2000-12-18, 00:36:00,VALID,916.494,VALID,0,VALID,98.4909,VALID,-0.0169808,VALID,20.0551,VALID,103,VALID,0.272035,
2000-12-18, 00:37:00,VALID,916.478,VALID,0,VALID,98.4705,VALID,0,VALID,20.0524,VALID,104,VALID,0,
2000-12-18, 00:38:00,VALID,916.486,VALID,0,VALID,98.4616,VALID,0,VALID,20.036,VALID,104,VALID,0.0972451,
2000-12-18, 00:39:00,VALID,916.466,VALID,0,VALID,98.4718,VALID,-0.0169808,VALID,20.0263,VALID,104,VALID,0,
2000-12-18, 00:40:00,VALID,916.459,VALID,0,VALID,98.482,VALID,-0.0509425,VALID,20.0293,VALID,102,VALID,0.00123355,
2000-12-18, 00:41:00,VALID,916.446,VALID,0,VALID,98.5188,VALID,-0.0169808,VALID,20.0452,VALID,97,VALID,0.283923,
2000-12-18, 00:42:00,VALID,916.453,VALID,0,VALID,98.5023,VALID,-0.0339617,VALID,20.0357,VALID,71,VALID,0.131757,
2000-12-18, 00:43:00,VALID,916.454,VALID,0,VALID,98.4591,VALID,-0.0509425,VALID,20.0325,VALID,71,VALID,0.279514,
2000-12-18, 00:44:00,VALID,916.454,VALID,0,VALID,98.4006,VALID,0,VALID,20.0037,VALID,72,VALID,0.349392,
2000-12-18, 00:45:00,VALID,916.456,VALID,0,VALID,98.4298,VALID,-0.0339617,VALID,20.0029,VALID,231,VALID,0.138338,
2000-12-18, 00:46:00,VALID,916.455,VALID,0,VALID,98.4514,VALID,0.0169808,VALID,20.0091,VALID,294,VALID,0,
2000-12-18, 00:47:00,VALID,916.449,VALID,0,VALID,98.4642,VALID,0,VALID,20.0295,VALID,281,VALID,0,
2000-12-18, 00:48:00,VALID,916.437,VALID,0,VALID,98.4692,VALID,-0.0169808,VALID,20.0395,VALID,204,VALID,0,
2000-12-18, 00:49:00,VALID,916.422,VALID,0,VALID,98.4947,VALID,0,VALID,20.0484,VALID,204,VALID,0,
2000-12-18, 00:50:00,VALID,916.393,VALID,0,VALID,98.4794,VALID,0,VALID,20.0454,VALID,204,VALID,0,
2000-12-18, 00:51:00,VALID,916.38,VALID,0,VALID,98.4527,VALID,0,VALID,20.0482,VALID,204,VALID,0,
2000-12-18, 00:52:00,VALID,916.36,VALID,0,VALID,98.4527,VALID,0,VALID,20.0484,VALID,100,VALID,0.264106,
2000-12-18, 00:53:00,VALID,916.333,VALID,0,VALID,98.3561,VALID,0,VALID,20.0228,VALID,161,VALID,0,
2000-12-18, 00:54:00,VALID,916.317,VALID,0,VALID,98.3192,VALID,0,VALID,19.9999,VALID,168,VALID,0.000446429,
2000-12-18, 00:55:00,VALID,916.297,VALID,0,VALID,98.3179,VALID,0,VALID,20.0233,VALID,142,VALID,0.254729,
2000-12-18, 00:56:00,VALID,916.289,VALID,0,VALID,98.3357,VALID,0,VALID,20.0226,VALID,135,VALID,0.00295608,
2000-12-18, 00:57:00,VALID,916.262,VALID,0,VALID,98.3421,VALID,-0.0169808,VALID,20.0223,VALID,135,VALID,0.03125,
2000-12-18, 00:58:00,VALID,916.241,VALID,0,VALID,98.3077,VALID,0,VALID,20.0136,VALID,135,VALID,0,
2000-12-18, 00:59:00,VALID,916.201,VALID,0,VALID,98.2556,VALID,-0.0169808,VALID,19.997,VALID,135,VALID,0.000390625,
2000-12-18, 01:00:00,VALID,916.174,VALID,0,VALID,98.2264,VALID,-0.0169808,VALID,19.9773,VALID,239,VALID,0.243215,
2000-12-18, 01:01:00,VALID,916.147,VALID,0,VALID,98.2213,VALID,-0.0849042,VALID,19.9843,VALID,180,VALID,0.0371094,
2000-12-18, 01:02:00,VALID,916.116,VALID,0,VALID,98.2416,VALID,-0.0509425,VALID,19.9811,VALID,139,VALID,0,
2000-12-18, 01:03:00,VALID,916.087,VALID,0,VALID,98.2175,VALID,-0.0339617,VALID,19.9746,VALID,162,VALID,0.0192145,
2000-12-18, 01:04:00,VALID,916.061,VALID,0,VALID,98.2149,VALID,0,VALID,19.9746,VALID,136,VALID,0,
2000-12-18, 01:05:00,VALID,916.032,VALID,0,VALID,98.1819,VALID,0,VALID,19.9647,VALID,137,VALID,0,
2000-12-18, 01:06:00,VALID,916.027,VALID,0,VALID,98.1552,VALID,-0.0339617,VALID,19.9388,VALID,172,VALID,0,
2000-12-18, 01:07:00,VALID,916.02,VALID,0,VALID,98.1348,VALID,-0.0679233,VALID,19.9388,VALID,167,VALID,0,
2000-12-18, 01:08:00,VALID,916.033,VALID,0,VALID,98.1361,VALID,-0.0169808,VALID,19.9157,VALID,106,VALID,0,
2000-12-18, 01:09:00,VALID,916.034,VALID,0,VALID,98.1844,VALID,-0.0169808,VALID,19.9393,VALID,114,VALID,0,
2000-12-18, 01:10:00,VALID,916.047,VALID,0,VALID,98.1844,VALID,0,VALID,19.9393,VALID,163,VALID,0,
2000-12-18, 01:11:00,VALID,916.046,VALID,0,VALID,98.1564,VALID,-0.0169808,VALID,19.9219,VALID,106,VALID,0,
2000-12-18, 01:12:00,VALID,916.053,VALID,0,VALID,98.1488,VALID,-0.0849042,VALID,19.9266,VALID,109,VALID,0,
2000-12-18, 01:13:00,VALID,916.036,VALID,0,VALID,98.0649,VALID,-0.0509425,VALID,19.9005,VALID,147,VALID,0.0401476,
2000-12-18, 01:14:00,VALID,916.024,VALID,0,VALID,97.9212,VALID,-0.0339617,VALID,19.8779,VALID,91,VALID,0.178602,
2000-12-18, 01:15:00,VALID,916.013,VALID,0,VALID,97.8958,VALID,-0.0339617,VALID,19.8812,VALID,93,VALID,0.250381,
2000-12-18, 01:16:00,VALID,915.991,VALID,0,VALID,97.8754,VALID,-0.0339617,VALID,19.868,VALID,117,VALID,0.255912,
2000-12-18, 01:17:00,VALID,916.009,VALID,0,VALID,97.8576,VALID,-0.0509425,VALID,19.865,VALID,109,VALID,0.310444,
2000-12-18, 01:18:00,VALID,915.999,VALID,0,VALID,97.8347,VALID,-0.0849042,VALID,19.8488,VALID,110,VALID,0,
2000-12-18, 01:19:00,VALID,915.991,VALID,0,VALID,97.7762,VALID,-0.0169808,VALID,19.829,VALID,110,VALID,0.110518,
2000-12-18, 01:20:00,VALID,915.985,VALID,0,VALID,97.7889,VALID,0.0339617,VALID,19.8148,VALID,99,VALID,0.463199,
2000-12-18, 01:21:00,VALID,915.984,VALID,0,VALID,97.8423,VALID,0.0169808,VALID,19.7951,VALID,97,VALID,0.0962171,
2000-12-18, 01:22:00,VALID,915.995,VALID,0,VALID,97.8334,VALID,0.0849042,VALID,19.8123,VALID,116,VALID,0.237413,
2000-12-18, 01:23:00,VALID,915.982,VALID,0,VALID,97.8512,VALID,0.0509425,VALID,19.7959,VALID,87,VALID,0.241132,
2000-12-18, 01:24:00,VALID,915.992,VALID,0,VALID,97.8767,VALID,0.0339617,VALID,19.7797,VALID,86,VALID,0.140179,
2000-12-18, 01:25:00,VALID,916.001,VALID,0,VALID,97.9237,VALID,0.0849042,VALID,19.7797,VALID,102,VALID,0.64227,
2000-12-18, 01:26:00,VALID,916.001,VALID,0,VALID,97.9199,VALID,0.0339617,VALID,19.7633,VALID,113,VALID,0.274493,
2000-12-18, 01:27:00,VALID,916.002,VALID,0,VALID,97.9059,VALID,0.0169808,VALID,19.7474,VALID,148,VALID,0.0968339,
2000-12-18, 01:28:00,VALID,915.995,VALID,0,VALID,97.9364,VALID,0.0509425,VALID,19.7469,VALID,110,VALID,0.347551,
2000-12-18, 01:29:00,VALID,916.002,VALID,0,VALID,98.0038,VALID,0.0679233,VALID,19.7728,VALID,39,VALID,0.0179687,
2000-12-18, 01:30:00,VALID,915.994,VALID,0,VALID,97.9949,VALID,0.0509425,VALID,19.7894,VALID,39,VALID,0.00164474,
2000-12-18, 01:31:00,VALID,916.003,VALID,0,VALID,97.972,VALID,0.0509425,VALID,19.7889,VALID,100,VALID,0.160156,
2000-12-18, 01:32:00,VALID,915.984,VALID,0,VALID,98.0051,VALID,0.0509425,VALID,19.8083,VALID,105,VALID,0.57348,
2000-12-18, 01:33:00,VALID,915.995,VALID,0,VALID,97.9873,VALID,0.0679233,VALID,19.8081,VALID,152,VALID,0.0896267,
2000-12-18, 01:34:00,VALID,915.985,VALID,0,VALID,97.9403,VALID,0.0339617,VALID,19.8121,VALID,116,VALID,0.519991,
2000-12-18, 01:35:00,VALID,915.961,VALID,0,VALID,97.8818,VALID,-0.0339617,VALID,19.8071,VALID,113,VALID,0.0798828,
2000-12-18, 01:36:00,VALID,915.952,VALID,0,VALID,97.8144,VALID,-0.0339617,VALID,19.7969,VALID,158,VALID,0.354367,
2000-12-18, 01:37:00,VALID,915.924,VALID,0,VALID,97.8195,VALID,-0.0339617,VALID,19.8066,VALID,41,VALID,0.549137,
2000-12-18, 01:38:00,VALID,915.894,VALID,0,VALID,97.6783,VALID,-0.0169808,VALID,19.8068,VALID,301,VALID,0.644326,
2000-12-18, 01:39:00,VALID,915.87,VALID,0,VALID,97.5855,VALID,-0.0509425,VALID,19.8235,VALID,98,VALID,0.632617,
2000-12-18, 01:40:00,VALID,915.852,VALID,0,VALID,97.3528,VALID,0,VALID,19.8227,VALID,94,VALID,0.676604,
2000-12-18, 01:41:00,VALID,915.82,VALID,0,VALID,97.101,VALID,-0.0169808,VALID,19.8354,VALID,87,VALID,1.16468,
2000-12-18, 01:42:00,VALID,915.808,VALID,0,VALID,97.0438,VALID,-0.0509425,VALID,19.8558,VALID,77,VALID,0.814823,
2000-12-18, 01:43:00,VALID,915.807,VALID,0,VALID,97.0959,VALID,-0.0339617,VALID,19.8585,VALID,80,VALID,0.878038,
2000-12-18, 01:44:00,VALID,915.795,VALID,0,VALID,96.6725,VALID,0,VALID,19.8521,VALID,74,VALID,1.5549,
2000-12-18, 01:45:00,VALID,915.758,VALID,0,VALID,96.5046,VALID,-0.0339617,VALID,19.8913,VALID,93,VALID,1.81117,
2000-12-18, 01:46:00,VALID,915.748,VALID,0,VALID,96.3635,VALID,-0.0509425,VALID,19.911,VALID,92,VALID,1.07559,
2000-12-18, 01:47:00,VALID,915.765,VALID,0,VALID,96.3317,VALID,-0.0339617,VALID,19.9199,VALID,91,VALID,0.515831,
2000-12-18, 01:48:00,VALID,915.745,VALID,0,VALID,96.3088,VALID,-0.0169808,VALID,19.9035,VALID,84,VALID,0.39227,
2000-12-18, 01:49:00,VALID,915.736,VALID,0,VALID,96.3113,VALID,-0.0679233,VALID,19.9005,VALID,96,VALID,1.15492,
2000-12-18, 01:50:00,VALID,915.731,VALID,0,VALID,96.2973,VALID,-0.0339617,VALID,19.9038,VALID,96,VALID,0.85773,
2000-12-18, 01:51:00,VALID,915.704,VALID,0,VALID,96.3622,VALID,-0.0339617,VALID,19.907,VALID,73,VALID,0.490748,
2000-12-18, 01:52:00,VALID,915.697,VALID,0,VALID,96.3482,VALID,0,VALID,19.9239,VALID,112,VALID,0.290365,
2000-12-18, 01:53:00,VALID,915.684,VALID,0,VALID,96.4614,VALID,-0.0169808,VALID,19.9204,VALID,88,VALID,0.851351,
2000-12-18, 01:54:00,VALID,915.649,VALID,0,VALID,96.427,VALID,-0.0339617,VALID,19.8973,VALID,85,VALID,1.56607,
2000-12-18, 01:55:00,VALID,915.637,VALID,0,VALID,96.3062,VALID,-0.0169808,VALID,19.9003,VALID,98,VALID,1.45744,
2000-12-18, 01:56:00,VALID,915.625,VALID,0,VALID,96.2808,VALID,-0.0169808,VALID,19.91,VALID,98,VALID,1.18074,
2000-12-18, 01:57:00,VALID,915.622,VALID,0,VALID,96.2783,VALID,-0.0169808,VALID,19.9261,VALID,98,VALID,1.30633,
2000-12-18, 01:58:00,VALID,915.604,VALID,0,VALID,96.3177,VALID,0,VALID,19.9425,VALID,94,VALID,1.41976,
2000-12-18, 01:59:00,VALID,915.606,VALID,0,VALID,96.249,VALID,-0.0339617,VALID,19.9326,VALID,95,VALID,1.1498,
2000-12-18, 02:00:00,VALID,915.607,VALID,0,VALID,96.2147,VALID,-0.0509425,VALID,19.9328,VALID,88,VALID,1.58594,
2000-12-18, 02:01:00,VALID,915.616,VALID,0,VALID,96.2185,VALID,-0.0169808,VALID,19.9261,VALID,80,VALID,0.977431,
2000-12-18, 02:02:00,VALID,915.63,VALID,0,VALID,96.1969,VALID,0,VALID,19.9361,VALID,88,VALID,1.22487,
2000-12-18, 02:03:00,VALID,915.62,VALID,0,VALID,96.249,VALID,-0.0169808,VALID,19.9164,VALID,101,VALID,1.09649,
2000-12-18, 02:04:00,VALID,915.6,VALID,0,VALID,96.3253,VALID,0,VALID,19.9164,VALID,69,VALID,0.406939,
2000-12-18, 02:05:00,VALID,915.619,VALID,0,VALID,96.4169,VALID,-0.0339617,VALID,19.9137,VALID,76,VALID,0.0685547,
2000-12-18, 02:06:00,VALID,915.604,VALID,0,VALID,96.5924,VALID,-0.0169808,VALID,19.8836,VALID,107,VALID,0.56851,
2000-12-18, 02:07:00,VALID,915.598,VALID,0,VALID,96.6585,VALID,-0.0169808,VALID,19.8841,VALID,90,VALID,0.901316,
2000-12-18, 02:08:00,VALID,915.594,VALID,0,VALID,96.7093,VALID,-0.0509425,VALID,19.8682,VALID,104,VALID,1.14474,
2000-12-18, 02:09:00,VALID,915.587,VALID,0,VALID,96.7895,VALID,-0.0339617,VALID,19.8424,VALID,95,VALID,1.33789,
2000-12-18, 02:10:00,VALID,915.581,VALID,0,VALID,96.8925,VALID,-0.0169808,VALID,19.8265,VALID,83,VALID,0.684005,
2000-12-18, 02:11:00,VALID,915.605,VALID,0,VALID,97.04,VALID,-0.0169808,VALID,19.8138,VALID,83,VALID,0.363076,
2000-12-18, 02:12:00,VALID,915.603,VALID,0,VALID,97.2053,VALID,-0.0339617,VALID,19.7939,VALID,88,VALID,0.823057,
2000-12-18, 02:13:00,VALID,915.602,VALID,0,VALID,97.3045,VALID,-0.0339617,VALID,19.7875,VALID,97,VALID,0.83138,
2000-12-18, 02:14:00,VALID,915.622,VALID,0,VALID,97.452,VALID,-0.0169808,VALID,19.7842,VALID,101,VALID,1.32791,
2000-12-18, 02:15:00,VALID,915.627,VALID,0,VALID,97.5333,VALID,-0.0509425,VALID,19.778,VALID,96,VALID,1.13529,
2000-12-18, 02:16:00,VALID,915.619,VALID,0,VALID,97.5473,VALID,-0.0169808,VALID,19.7713,VALID,94,VALID,1.36402,
2000-12-18, 02:17:00,VALID,915.62,VALID,0,VALID,97.6147,VALID,0,VALID,19.771,VALID,96,VALID,1.40234,
2000-12-18, 02:18:00,VALID,915.622,VALID,0,VALID,97.6808,VALID,-0.0339617,VALID,19.7842,VALID,93,VALID,1.43812,
2000-12-18, 02:19:00,VALID,915.611,VALID,0,VALID,97.691,VALID,-0.0169808,VALID,19.7904,VALID,104,VALID,1.01925,
2000-12-18, 02:20:00,VALID,915.628,VALID,0,VALID,97.663,VALID,-0.0169808,VALID,19.8071,VALID,96,VALID,0.803043,
2000-12-18, 02:21:00,VALID,915.617,VALID,0,VALID,97.6707,VALID,-0.0339617,VALID,19.8138,VALID,105,VALID,0.874178,
2000-12-18, 02:22:00,VALID,915.599,VALID,0,VALID,97.6478,VALID,-0.0509425,VALID,19.8041,VALID,101,VALID,0.452691,
2000-12-18, 02:23:00,VALID,915.592,VALID,0,VALID,97.663,VALID,-0.0169808,VALID,19.8036,VALID,92,VALID,0.610431,
2000-12-18, 02:24:00,VALID,915.578,VALID,0,VALID,97.6821,VALID,-0.0509425,VALID,19.8009,VALID,99,VALID,1.43638,
2000-12-18, 02:25:00,VALID,915.541,VALID,0,VALID,97.6719,VALID,-0.0339617,VALID,19.7971,VALID,98,VALID,1.62932,
2000-12-18, 02:26:00,VALID,915.536,VALID,0,VALID,97.6491,VALID,-0.0509425,VALID,19.8004,VALID,97,VALID,0.975507,
2000-12-18, 02:27:00,VALID,915.52,VALID,0,VALID,97.5944,VALID,-0.0169808,VALID,19.8101,VALID,93,VALID,0.321957,
2000-12-18, 02:28:00,VALID,915.507,VALID,0,VALID,97.5626,VALID,0,VALID,19.813,VALID,100,VALID,0.00971284,
2000-12-18, 02:29:00,VALID,915.509,VALID,0,VALID,97.555,VALID,-0.0169808,VALID,19.8235,VALID,100,VALID,0.674023,
2000-12-18, 02:30:00,VALID,915.51,VALID,0,VALID,97.555,VALID,-0.0169808,VALID,19.8101,VALID,105,VALID,0.262747,
2000-12-18, 02:31:00,VALID,915.519,VALID,0,VALID,97.5626,VALID,0,VALID,19.7842,VALID,100,VALID,0.951606,
2000-12-18, 02:32:00,VALID,915.501,VALID,0,VALID,97.6402,VALID,0,VALID,19.7807,VALID,99,VALID,0.90815,
2000-12-18, 02:33:00,VALID,915.512,VALID,0,VALID,97.7292,VALID,0,VALID,19.8006,VALID,104,VALID,0.634924,
2000-12-18, 02:34:00,VALID,915.502,VALID,0,VALID,97.7241,VALID,-0.0169808,VALID,19.7872,VALID,105,VALID,0.818474,
2000-12-18, 02:35:00,VALID,915.495,VALID,0,VALID,97.7292,VALID,-0.0169808,VALID,19.7902,VALID,102,VALID,0.617383,
2000-12-18, 02:36:00,VALID,915.503,VALID,0,VALID,97.7381,VALID,0,VALID,19.7971,VALID,104,VALID,0.458333,
2000-12-18, 02:37:00,VALID,915.497,VALID,0,VALID,97.7406,VALID,0,VALID,19.7971,VALID,102,VALID,0.513158,
2000-12-18, 02:38:00,VALID,915.497,VALID,0,VALID,97.7139,VALID,0,VALID,19.7648,VALID,102,VALID,0.371505,
2000-12-18, 02:39:00,VALID,915.481,VALID,0,VALID,97.719,VALID,-0.0339617,VALID,19.7584,VALID,98,VALID,0.815039,
2000-12-18, 02:40:00,VALID,915.49,VALID,0,VALID,97.7406,VALID,-0.0169808,VALID,19.7551,VALID,99,VALID,1.06456,
2000-12-18, 02:41:00,VALID,915.483,VALID,0,VALID,97.7228,VALID,-0.0169808,VALID,19.7648,VALID,90,VALID,0.862048,
2000-12-18, 02:42:00,VALID,915.478,VALID,0,VALID,97.6173,VALID,0,VALID,19.7616,VALID,90,VALID,0.578125,
2000-12-18, 02:43:00,VALID,915.482,VALID,0,VALID,97.5956,VALID,0,VALID,19.7678,VALID,95,VALID,0.701389,
2000-12-18, 02:44:00,VALID,915.476,VALID,0,VALID,97.5562,VALID,-0.0169808,VALID,19.7743,VALID,85,VALID,0.372613,
2000-12-18, 02:45:00,VALID,915.482,VALID,0,VALID,97.5232,VALID,0,VALID,19.7775,VALID,97,VALID,0.735328,
2000-12-18, 02:46:00,VALID,915.474,VALID,0,VALID,97.5066,VALID,-0.0339617,VALID,19.7581,VALID,95,VALID,1.019,
2000-12-18, 02:47:00,VALID,915.48,VALID,0,VALID,97.466,VALID,-0.0169808,VALID,19.7517,VALID,93,VALID,1.10362,
2000-12-18, 02:48:00,VALID,915.497,VALID,0,VALID,97.3986,VALID,0,VALID,19.7584,VALID,94,VALID,1.11102,
2000-12-18, 02:49:00,VALID,915.489,VALID,0,VALID,97.3668,VALID,0,VALID,19.7586,VALID,92,VALID,1.26334,
2000-12-18, 02:50:00,VALID,915.477,VALID,0,VALID,97.3337,VALID,0,VALID,19.7489,VALID,86,VALID,1.40358,
2000-12-18, 02:51:00,VALID,915.479,VALID,0,VALID,97.2294,VALID,0,VALID,19.7487,VALID,91,VALID,1.17578,
2000-12-18, 02:52:00,VALID,915.465,VALID,0,VALID,97.1913,VALID,0,VALID,19.7452,VALID,82,VALID,1.20291,
2000-12-18, 02:53:00,VALID,915.475,VALID,0,VALID,97.1264,VALID,-0.0169808,VALID,19.7457,VALID,95,VALID,1.61128,
2000-12-18, 02:54:00,VALID,915.46,VALID,0,VALID,97.1404,VALID,-0.0169808,VALID,19.7517,VALID,93,VALID,1.21362,
2000-12-18, 02:55:00,VALID,915.462,VALID,0,VALID,97.1595,VALID,0,VALID,19.739,VALID,92,VALID,1.14618,
2000-12-18, 02:56:00,VALID,915.446,VALID,0,VALID,97.1671,VALID,-0.0169808,VALID,19.739,VALID,95,VALID,1.20503,
2000-12-18, 02:57:00,VALID,915.429,VALID,0,VALID,97.2065,VALID,0,VALID,19.7323,VALID,99,VALID,1.28331,
2000-12-18, 02:58:00,VALID,915.409,VALID,0,VALID,97.1989,VALID,0,VALID,19.7231,VALID,99,VALID,0.959671,
2000-12-18, 02:59:00,VALID,915.385,VALID,0,VALID,97.1926,VALID,-0.0169808,VALID,19.7169,VALID,93,VALID,0.191016,
2000-12-18, 03:00:00,VALID,915.376,VALID,0,VALID,97.2485,VALID,0,VALID,19.7007,VALID,93,VALID,0.00205592,
2000-12-18, 03:01:00,VALID,915.349,VALID,0,VALID,97.3095,VALID,-0.0339617,VALID,19.6744,VALID,93,VALID,0,
2000-12-18, 03:02:00,VALID,915.337,VALID,0,VALID,97.3553,VALID,0.0169808,VALID,19.6582,VALID,93,VALID,0,
2000-12-18, 03:03:00,VALID,915.296,VALID,0,VALID,97.4062,VALID,-0.0339617,VALID,19.6418,VALID,93,VALID,0,
2000-12-18, 03:04:00,VALID,915.282,VALID,0,VALID,97.4609,VALID,-0.0169808,VALID,19.6324,VALID,98,VALID,0.48966,
2000-12-18, 03:05:00,VALID,915.268,VALID,0,VALID,97.5664,VALID,0,VALID,19.613,VALID,97,VALID,0.839258,
2000-12-18, 03:06:00,VALID,915.251,VALID,0,VALID,97.7101,VALID,0,VALID,19.6162,VALID,99,VALID,1.11498,
2000-12-18, 03:07:00,VALID,915.23,VALID,0,VALID,97.8563,VALID,0.0169808,VALID,19.6324,VALID,96,VALID,1.06723,
2000-12-18, 03:08:00,VALID,915.214,VALID,0,VALID,97.9708,VALID,-0.0169808,VALID,19.6324,VALID,94,VALID,0.981702,
2000-12-18, 03:09:00,VALID,915.21,VALID,0,VALID,98.0509,VALID,0,VALID,19.616,VALID,102,VALID,0.930078,
2000-12-18, 03:10:00,VALID,915.196,VALID,0,VALID,98.0967,VALID,0.0339617,VALID,19.6294,VALID,103,VALID,0.710115,
2000-12-18, 03:11:00,VALID,915.186,VALID,0,VALID,98.1577,VALID,0,VALID,19.6423,VALID,102,VALID,0.672492,
2000-12-18, 03:12:00,VALID,915.191,VALID,0,VALID,98.2276,VALID,0,VALID,19.6552,VALID,98,VALID,0.862331,
2000-12-18, 03:13:00,VALID,915.19,VALID,0,VALID,98.276,VALID,0,VALID,19.6652,VALID,90,VALID,0.593533,
2000-12-18, 03:14:00,VALID,915.187,VALID,0,VALID,98.2823,VALID,0,VALID,19.6816,VALID,90,VALID,0.552734,
2000-12-18, 03:15:00,VALID,915.19,VALID,0,VALID,98.2963,VALID,0,VALID,19.6644,VALID,96,VALID,0.686166,
2000-12-18, 03:16:00,VALID,915.188,VALID,0,VALID,98.3408,VALID,0,VALID,19.6776,VALID,109,VALID,0.627534,
2000-12-18, 03:17:00,VALID,915.173,VALID,0,VALID,98.3802,VALID,-0.0509425,VALID,19.6945,VALID,109,VALID,0.259457,
2000-12-18, 03:18:00,VALID,915.168,VALID,0,VALID,98.4133,VALID,-0.0169808,VALID,19.7032,VALID,105,VALID,0.563322,
2000-12-18, 03:19:00,VALID,915.144,VALID,0,VALID,98.4502,VALID,0,VALID,19.7062,VALID,108,VALID,0.55221,
2000-12-18, 03:20:00,VALID,915.119,VALID,0,VALID,98.4858,VALID,0.0849042,VALID,19.7181,VALID,102,VALID,0.395148,
2000-12-18, 03:21:00,VALID,915.104,VALID,0,VALID,98.5112,VALID,0.0679233,VALID,19.7375,VALID,98,VALID,0.17866,
2000-12-18, 03:22:00,VALID,915.083,VALID,0,VALID,98.5468,VALID,0.0849042,VALID,19.744,VALID,99,VALID,0,
2000-12-18, 03:23:00,VALID,915.074,VALID,0,VALID,98.5277,VALID,0.0509425,VALID,19.7345,VALID,99,VALID,0,
2000-12-18, 03:24:00,VALID,915.061,VALID,0,VALID,98.515,VALID,0.0849042,VALID,19.7248,VALID,99,VALID,0,
2000-12-18, 03:25:00,VALID,915.045,VALID,0,VALID,98.5176,VALID,0.0679233,VALID,19.7116,VALID,99,VALID,0,
2000-12-18, 03:26:00,VALID,915.047,VALID,0,VALID,98.5379,VALID,0.0679233,VALID,19.7251,VALID,100,VALID,0,
2000-12-18, 03:27:00,VALID,915.042,VALID,0,VALID,98.5315,VALID,0.0339617,VALID,19.7087,VALID,100,VALID,0,
2000-12-18, 03:28:00,VALID,915.034,VALID,0,VALID,98.5366,VALID,0.0679233,VALID,19.7087,VALID,100,VALID,0,
2000-12-18, 03:29:00,VALID,915.036,VALID,0,VALID,98.5366,VALID,0.0679233,VALID,19.6856,VALID,100,VALID,0,
2000-12-18, 03:30:00,VALID,915.029,VALID,0,VALID,98.5532,VALID,0.0849042,VALID,19.6823,VALID,100,VALID,0,
2000-12-18, 03:31:00,VALID,915.018,VALID,0,VALID,98.5659,VALID,0.101885,VALID,19.6957,VALID,100,VALID,0,
2000-12-18, 03:32:00,VALID,915.024,VALID,0,VALID,98.5824,VALID,0.0679233,VALID,19.6856,VALID,101,VALID,0,
2000-12-18, 03:33:00,VALID,915.022,VALID,0,VALID,98.6104,VALID,0.0679233,VALID,19.7052,VALID,101,VALID,0,
2000-12-18, 03:34:00,VALID,915.015,VALID,0,VALID,98.6129,VALID,0.0339617,VALID,19.6992,VALID,101,VALID,0,
2000-12-18, 03:35:00,VALID,915.035,VALID,0,VALID,98.6142,VALID,-0.0509425,VALID,19.6905,VALID,109,VALID,0,
2000-12-18, 03:36:00,VALID,915.045,VALID,0,VALID,98.6371,VALID,-0.0169808,VALID,19.6938,VALID,112,VALID,0,